Weather History for Tupelo, MS

Change the Weather History Date:

Tuesday, April 23, 2013

  Actual Average Record
Temperature  
Mean Temperature 67 °F 64 °F  
Max Temperature 77 °F 76 °F 90 °F (1965)
Min Temperature 56 °F 52 °F 31 °F (1982)
Degree Days  
Heating Degree Days 0 3  
Month to date heating degree days 132 128  
Since 1 July heating degree days 2873 2914  
Cooling Degree Days 2 3  
Month to date cooling degree days 50 38  
Year to date cooling degree days 57 54  
Growing Degree Days 16 (Base 50)    
Moisture  
Dew Point 56 °F    
Average Humidity 72    
Maximum Humidity 93    
Minimum Humidity 50    
Precipitation  
Precipitation 0.00 in 0.17 in 2.42 in (1985)
Month to date precipitation 4.49 3.57  
Year to date precipitation 21.25 17.83  
Snow  
Snow 0.00 in 0.00 in - ()
Month to date snowfall 0.0 0.0  
Since 1 July snowfall T 2.1  
Snow Depth 0.00 in    
Sea Level Pressure  
Sea Level Pressure 30.05 in    
Wind  
Wind Speed 10 mph (South)    
Max Wind Speed 22 mph    
Max Gust Speed 26 mph    
Visibility 10 miles    
Events      
T = Trace of Precipitation, MM = Missing Value Source: NWS Daily Summary

Daily Weather History Graph

Daily Weather History Graph

Search for Another Location

Airport:

Trip Planner

Search our weather history database for the weather conditions in past years. The results will help you decide how hot, cold, wet, or windy it might be!

Date:

Astronomy

Apr. 23, 2013 Rise Set
Actual Time 6:13 AM CDT 7:33 PM CDT
Civil Twilight 5:47 AM CDT 7:59 PM CDT
Nautical Twilight 5:16 AM CDT 8:31 PM CDT
Astronomical Twilight 4:43 AM CDT 9:03 PM CDT
Moon 5:32 PM CDT 4:35 AM CDT
Length of Visible Light 14h 11m
Length of Day
13h 19m
Waxing Gibbous, 94% of the Moon is Illuminated
Apr 23
Waxing Gibbous
Apr 25
Full
May 2
Last Quarter
May 9
New
May 17
First Quarter

Hourly Weather History & Observations

Time (CDT) Temp. Dew Point Humidity Pressure Visibility Wind Dir Wind Speed Gust Speed Precip Events Conditions
12:53 AM 57.9 °F 52.0 °F 81% 30.08 in 10.0 mi South 3.5 mph - N/A   Clear
1:53 AM 55.9 °F 52.0 °F 87% 30.07 in 10.0 mi South 3.5 mph - N/A   Clear
2:53 AM 59.0 °F 54.0 °F 83% 30.06 in 10.0 mi South 5.8 mph - N/A   Clear
3:53 AM 57.9 °F 54.0 °F 87% 30.06 in 10.0 mi South 4.6 mph - N/A   Clear
4:53 AM 57.9 °F 54.0 °F 87% 30.07 in 10.0 mi South 6.9 mph - N/A   Partly Cloudy
5:53 AM 57.9 °F 54.0 °F 87% 30.07 in 10.0 mi South 4.6 mph - N/A   Partly Cloudy
6:53 AM 57.9 °F 55.0 °F 90% 30.09 in 10.0 mi South 3.5 mph - N/A   Scattered Clouds
7:53 AM 60.1 °F 55.9 °F 86% 30.09 in 10.0 mi South 8.1 mph - N/A   Scattered Clouds
8:04 AM 60.8 °F 55.4 °F 82% 30.10 in 10.0 mi South 10.4 mph - N/A   Scattered Clouds
8:53 AM 63.0 °F 57.0 °F 81% 30.11 in 10.0 mi SSW 10.4 mph - N/A   Partly Cloudy
9:42 AM 66.2 °F 57.2 °F 73% 30.10 in 10.0 mi South 15.0 mph 20.7 mph N/A   Mostly Cloudy
9:53 AM 66.9 °F 57.0 °F 70% 30.09 in 10.0 mi South 11.5 mph - N/A   Mostly Cloudy
10:53 AM 69.1 °F 57.9 °F 68% 30.10 in 10.0 mi SSW 16.1 mph - N/A   Overcast
11:53 AM 72.0 °F 59.0 °F 64% 30.09 in 10.0 mi South 12.7 mph 24.2 mph N/A   Mostly Cloudy
12:01 PM 71.6 °F 57.2 °F 60% 30.10 in 10.0 mi SSW 18.4 mph 25.3 mph N/A   Mostly Cloudy
12:53 PM 71.1 °F 57.9 °F 63% 30.07 in 10.0 mi South 13.8 mph 20.7 mph N/A   Overcast
1:53 PM 73.0 °F 57.9 °F 59% 30.06 in 10.0 mi SW 15.0 mph - N/A   Overcast
2:53 PM 75.0 °F 57.9 °F 55% 30.03 in 10.0 mi SSW 15.0 mph - N/A   Mostly Cloudy
3:53 PM 73.9 °F 57.0 °F 55% 30.01 in 10.0 mi SSW 15.0 mph 23.0 mph N/A   Mostly Cloudy
4:53 PM 73.9 °F 57.9 °F 57% 29.99 in 10.0 mi SSW 13.8 mph - N/A   Mostly Cloudy
5:53 PM 75.0 °F 55.9 °F 51% 29.98 in 10.0 mi SW 11.5 mph - N/A   Partly Cloudy
6:53 PM 73.0 °F 57.0 °F 57% 29.97 in 10.0 mi South 8.1 mph - N/A   Scattered Clouds
7:53 PM 71.1 °F 57.0 °F 61% 29.96 in 10.0 mi South 6.9 mph - N/A   Mostly Cloudy
8:53 PM 70.0 °F 57.9 °F 65% 29.98 in 10.0 mi South 8.1 mph - N/A   Overcast
9:53 PM 70.0 °F 57.9 °F 65% 29.99 in 10.0 mi South 8.1 mph - N/A   Overcast
10:53 PM 69.1 °F 57.9 °F 68% 29.99 in 10.0 mi SSW 8.1 mph - N/A   Overcast
11:53 PM 69.1 °F 57.9 °F 68% 29.98 in 10.0 mi South 11.5 mph - N/A   Overcast